Regional Weather Roundup
Issued by NWS Upton, NY

Current Version | Previous Version | Graphics & Text | Print | Product List | Glossary Off
Versions: 1 2 3 4 5 6 7 8 9 10 11 12 13 14 15 16 17 18 19 20 21 22 23 24 25 26 27 28 29 30 31 32 33 34 35 36 37 38 39 40 41 42 43 44 45 46 47 48 49 50

978
ASUS41 KOKX 251504
RWROKX

REGIONAL WEATHER ROUNDUP
NATIONAL WEATHER SERVICE NEW YORK NY
1100 AM EDT MON JUL 25 2016

NOTE: "FAIR" INDICATES FEW OR NO CLOUDS BELOW 12,000 FEET WITH NO
SIGNIFICANT WEATHER AND/OR OBSTRUCTIONS TO VISIBILITY.

NYZ071-072-176-178-NJZ106-104-251600-
NEW YORK CITY METRO AREA

CITY           SKY/WX    TMP DP  RH WIND       PRES   REMARKS
Central Park   CLOUDY    84  72  67 CALM      29.95S
LaGuardia APRT PTSUNNY   84  72  67 S13       29.92S
Kennedy INTL   CLOUDY    78  70  76 S14G24    29.95F
Newark/Liberty CLOUDY    84  72  67 SW12      29.93R
BRNX BOT. GARD   N/A     82  72  69 SE13      29.95F
Wall St Helipt CLOUDY    82  73  74 SW9       29.95R
Teterboro      MOSUNNY   84  70  62 SW9       29.91S
$$

NYZ177-179-078>081-251600-
LONG ISLAND NEW YORK

CITY           SKY/WX    TMP DP  RH WIND       PRES   REMARKS
FARMINGDALE    CLOUDY    80  71  74 SW14      29.94S
ISLIP          CLOUDY    84  68  58 SW15      29.93F
SHIRLEY        CLOUDY    84  65  52 SW15      29.94F
RIVERHEAD      NOT AVBL
WESTHAMPTON    CLOUDY    81  66  60 SW16      29.95S
SOUTHAMPTON      N/A     79  70  73 SW8       29.90S
BRIDGEHAMPTON    N/A     84  72  65 S1        29.93S
EAST HAMPTON   FAIR      83  67  59 SW12G17   29.93S
MONTAUK POINT    N/A     80  68  66 SW9G21    29.95S
$$

NYZ052-065-067-251600-
HUDSON VALLEY

CITY           SKY/WX    TMP DP  RH WIND       PRES   REMARKS
WHITE PLAINS   MOSUNNY   82  72  71 S8        29.93S
NEWBURGH       MOSUNNY   88  72  58 W7        29.93S HX  94
MONTGOMERY     SUNNY     88  71  57 S6G18     29.91F HX  94
POUGHKEEPSIE   SUNNY     89  68  49 SW7       29.89F HX  93
ALBANY         PTSUNNY   83  64  52 VRB3      29.89F
$$

NJZ001-105-106-008-010-013-015-019>022-104-251600-
NEW JERSEY

CITY           SKY/WX    TMP DP  RH WIND       PRES   REMARKS
NEWARK/LIBERTY CLOUDY    84  72  67 SW12      29.93R
TETERBORO      MOSUNNY   84  70  62 SW9       29.91S
CALDWELL       MOSUNNY   85  71  63 MISG      29.93R HX  90
MORRISTOWN     PTSUNNY   86  72  62 W6        29.93S HX  92
SOMERVILLE     SUNNY     86  72  62 VRB5      29.92S HX  92
SUSSEX         SUNNY     86  71  60 S6        29.93S HX  91
ANDOVER          N/A     84  69  60 CALM      29.94F
TRENTON        MOSUNNY   83  75  77 SW8       29.95R HX  90
MILLVILLE      MOSUNNY   87  76  69 SW8       29.95F HX  97
ATLANTIC CITY  SUNNY     84  76  76 SW5       29.95F HX  93
WRIGHTSTOWN    NOT AVBL
TOMS RIVER     CLOUDY    82  76  81 SW6       29.95F
BELMAR         CLOUDY    78  74  87 S8        29.95F
$$

PAZ047>061-062-071-251600-
EASTERN PENNSYLVANIA

CITY           SKY/WX    TMP DP  RH WIND       PRES   REMARKS
PHILADELPHIA   MOSUNNY   85  75  72 VRB7      29.95F HX  93
ALLENTOWN      SUNNY     88  68  51 W6        29.94S HX  91
SCRANTON       CLOUDY    86  69  56 W9        29.96S HX  90
$$

CTZ002-004>006-009-010-012-RIZ004-006-007-MAZ004-011-015-251600-
SOUTHERN NEW ENGLAND
 IN CT

CITY           SKY/WX    TMP DP  RH WIND       PRES   REMARKS
BRADLEY INTL   PTSUNNY   91  65  41 S10       29.90S HX  93
HARTFORD       MOSUNNY   90  67  46 SW8       29.90F HX  93
DANBURY        SUNNY     86  69  56 SW5       29.94S HX  90
WTRBRY/OXFORD  MOSUNNY   84  66  54 SW7       29.97R
BRIDGEPORT     SUNNY     84  72  67 SW15      29.93S
MERIDEN        SUNNY     89  66  46 SW8       29.92S HX  91
NEW HAVEN      MOSUNNY   81  69  67 SW9       29.94R
CHESTER        FAIR      84  66  54 SW13      29.94F
GROTON         CLOUDY    81  71  71 S7        29.93S
WILLIMANTIC    NOT AVBL

 IN RI

CITY           SKY/WX    TMP DP  RH WIND       PRES   REMARKS
PROVIDENCE     MOSUNNY   88  67  49 W10       29.91F HX  91
BLOCK ISLAND   CLOUDY    79  71  76 SW15      29.95S
WESTERLY       CLOUDY    83  69  62 SW8       29.95S

 IN MA

CITY           SKY/WX    TMP DP  RH WIND       PRES   REMARKS
BOSTON         MOSUNNY   78  62  57 E10       29.91S
WORCESTER      SUNNY     84  66  54 SW13      29.95S
WESTFIELD      MOSUNNY   88  67  49 S7        29.90F HX  91
PROVINCETOWN   SUNNY     83  71  67 S7        29.93F
NANTUCKET      CLOUDY    76  71  85 S16       29.96S
$$

ANZ330-335-338-340-345-350-353-355-251600-
COASTAL MARINE OBSERVATIONS


STATION/POSITION TIME  SKY/WX   TEMP    WIND        PRES    VSBY  WAVE
                                AIR SEA DIR/SP/G                  HT/PER
                 (UTC)          (F)     (DEG/KT/KT) (MB)    (MI)  (FT/S)
NY HARB ENTRANCE 1350            74 74  190/ 16/ 19 1013.5          3/ 4
20S FIRE ISLAND  1350            73 72  190/ 10/ 12 1013.6          3/ 6
GREAT SOUTH BAY  1400            76 80  230/ 14/ 16   N/A
23 SSW MONTAUK P 1350            74 72  220/ 10/ 12 1014.3          2/ 6
15 E BARNEGAT LI 1422               75                N/A           2/ 6
HUDSON CANYON    1350            76 77              1015.1          2/ 5
KINGS POINT      1400            76 73              1013.3
EXECUTION ROCKS  1400            79     190/ 10/ 12   N/A
CENTRAL LI SOUND 1430            77 74  230/ 10/ 12   N/A           0
EASTERN LI SOUND 1400            77 68  250/  2/  4   N/A
ROBBINS REEF     1406            75     160/ 14/ 15 1012.8
$$


>>>>>>>>>>>>>>>>>>>>>>>>>>>> KEY <<<<<<<<<<<<<<<<<<<<<<<<<<<
>                                                          <
>     SKY/WX - SKY CONDITION/PRESENT WEATHER               <
>     TMP    - TEMPERATURE IN FAHRENHEIT                   <
>     DP     - DEWPOINT IN FAHRENHEIT                      <
>     RH     - RELATIVE HUMIDITY IN PERCENT                <
>     WIND   - DIRECTION AND SPEED IN MPH                  <
>     PRES   - MEAN SEA LEVEL PRESSURE IN INCHES OF HG     <
>     WCI    - WIND CHILL INDEX                            <
>     VSB    - VISIBILITY IN MILES                         <
>     HX     - HEAT INDEX                                  <
>     TC     - TEMPERATURE IN CELSIUS                      <
>     VRB    - VARIABLE WIND DIRECTION                     <
>                                                          <
>>>>>>>>>>>>>>>>>>>>>>>>>>>> KEY <<<<<<<<<<<<<<<<<<<<<<<<<<<






USA.gov is the U.S. government's official web portal to all federal, state and local government web resources and services.